QLK93D YMML-YMLT

Flight info

Callsign QLK93D
Flight time 0h 58m
Altitude 25000
Route ML H169 IRSOM W105 LT
Aircraft DH8D/M-SDE2E3FGRY/H

Departure

Time 2026-05-08 02:59
Airport Melbourne Airport (YMML)

Arrival

Time 2026-05-08 03:58
Airport Launceston Airport (YMLT)
Time Latitude Longitude Altitude Speed Heading
2026-05-08 02:34 -37.66733 144.85159 443 ft 0 kts 81°
2026-05-08 02:53 -37.66736 144.85143 443 ft 2 kts 82°
2026-05-08 02:53 -37.66737 144.85123 443 ft 2 kts 82°
2026-05-08 02:53 -37.66739 144.85112 443 ft 1 kts 78°
2026-05-08 02:54 -37.66746 144.85097 443 ft 2 kts 38°
2026-05-08 02:54 -37.66758 144.85089 443 ft 0 kts
2026-05-08 02:54 -37.66761 144.85089 443 ft 0 kts
2026-05-08 02:56 -37.66743 144.85089 443 ft 8 kts 358°
2026-05-08 02:57 -37.66682 144.85078 443 ft 9 kts 351°
2026-05-08 02:57 -37.66599 144.85063 443 ft 13 kts 353°
2026-05-08 02:57 -37.66507 144.85048 443 ft 12 kts 349°
2026-05-08 02:57 -37.66435 144.84999 443 ft 11 kts 321°
2026-05-08 02:58 -37.66363 144.84927 443 ft 20 kts 322°
2026-05-08 02:58 -37.66259 144.84822 443 ft 18 kts 321°
2026-05-08 02:58 -37.66222 144.84758 443 ft 3 kts 273°
2026-05-08 02:58 -37.66222 144.84755 443 ft 0 kts 273°
2026-05-08 02:59 -37.66220 144.84712 443 ft 30 kts 273°
2026-05-08 02:59 -37.66182 144.84049 443 ft 115 kts 273°
2026-05-08 02:59 -37.66079 144.82863 656 ft 145 kts 274°
2026-05-08 02:59 -37.65914 144.81570 1284 ft 151 kts 274°
2026-05-08 03:00 -37.65751 144.80324 2080 ft 144 kts 262°
2026-05-08 03:00 -37.66130 144.79233 2607 ft 143 kts 220°
2026-05-08 03:00 -37.67111 144.78761 2941 ft 165 kts 195°
2026-05-08 03:00 -37.68328 144.78744 3244 ft 190 kts 171°
2026-05-08 03:01 -37.69582 144.79353 3914 ft 194 kts 163°
2026-05-08 03:01 -37.70833 144.80008 4534 ft 197 kts 164°
2026-05-08 03:01 -37.72100 144.80670 5209 ft 198 kts 163°
2026-05-08 03:01 -37.73370 144.81331 5860 ft 199 kts 163°
2026-05-08 03:02 -37.74644 144.81992 6529 ft 200 kts 163°
2026-05-08 03:02 -37.75935 144.82657 7174 ft 202 kts 163°
2026-05-08 03:02 -37.77237 144.83328 7847 ft 202 kts 163°
2026-05-08 03:02 -37.78534 144.83995 8515 ft 202 kts 163°
2026-05-08 03:03 -37.79832 144.84660 9143 ft 203 kts 164°
2026-05-08 03:03 -37.81130 144.85327 9798 ft 203 kts 164°
2026-05-08 03:03 -37.82438 144.85997 10400 ft 204 kts 164°
2026-05-08 03:03 -37.83762 144.86675 10995 ft 206 kts 163°
2026-05-08 03:04 -37.85102 144.87363 11574 ft 207 kts 163°
2026-05-08 03:04 -37.86449 144.88052 12116 ft 209 kts 163°
2026-05-08 03:04 -37.87794 144.88742 12652 ft 211 kts 163°
2026-05-08 03:04 -37.89145 144.89436 13196 ft 211 kts 163°
2026-05-08 03:05 -37.90526 144.90143 13673 ft 214 kts 163°
2026-05-08 03:05 -37.91919 144.90858 14135 ft 217 kts 163°
2026-05-08 03:05 -37.93316 144.91576 14607 ft 218 kts 163°
2026-05-08 03:05 -37.94730 144.92302 15026 ft 221 kts 163°
2026-05-08 03:06 -37.96148 144.93030 15480 ft 222 kts 162°
2026-05-08 03:06 -37.97610 144.93780 15853 ft 226 kts 163°
2026-05-08 03:06 -37.99063 144.94528 16272 ft 228 kts 163°
2026-05-08 03:06 -38.00547 144.95291 16670 ft 230 kts 163°
2026-05-08 03:07 -38.02034 144.96056 16984 ft 234 kts 162°
2026-05-08 03:07 -38.03571 144.96848 17381 ft 235 kts 162°
2026-05-08 03:07 -38.05100 144.97635 17738 ft 238 kts 162°
2026-05-08 03:07 -38.06666 144.98442 18106 ft 239 kts 162°
2026-05-08 03:08 -38.08192 144.99229 18499 ft 239 kts 162°
2026-05-08 03:08 -38.09732 145.00023 18839 ft 241 kts 162°
2026-05-08 03:08 -38.11295 145.00829 19206 ft 242 kts 162°
2026-05-08 03:08 -38.12889 145.01651 19499 ft 246 kts 162°
2026-05-08 03:09 -38.14460 145.02461 19858 ft 246 kts 161°
2026-05-08 03:09 -38.16041 145.03279 20231 ft 247 kts 162°
2026-05-08 03:09 -38.17654 145.04112 20520 ft 247 kts 162°
2026-05-08 03:09 -38.19228 145.04927 20809 ft 249 kts 162°
2026-05-08 03:10 -38.20850 145.05766 21058 ft 250 kts 162°
2026-05-08 03:10 -38.22458 145.06598 21313 ft 251 kts 162°
2026-05-08 03:10 -38.24091 145.07443 21590 ft 251 kts 162°
2026-05-08 03:10 -38.25714 145.08284 21792 ft 255 kts 162°
2026-05-08 03:11 -38.27348 145.09132 22070 ft 253 kts 162°
2026-05-08 03:11 -38.28982 145.09979 22287 ft 255 kts 162°
2026-05-08 03:11 -38.30615 145.10826 22493 ft 256 kts 162°
2026-05-08 03:11 -38.32265 145.11682 22706 ft 257 kts 162°
2026-05-08 03:12 -38.33921 145.12543 22922 ft 257 kts 162°
2026-05-08 03:12 -38.35578 145.13403 23121 ft 257 kts 162°
2026-05-08 03:12 -38.37222 145.14258 23337 ft 257 kts 162°
2026-05-08 03:12 -38.38894 145.15126 23481 ft 259 kts 162°
2026-05-08 03:13 -38.40570 145.15999 23697 ft 259 kts 162°
2026-05-08 03:13 -38.42227 145.16861 23891 ft 259 kts 162°
2026-05-08 03:13 -38.43904 145.17734 24046 ft 260 kts 162°
2026-05-08 03:13 -38.45577 145.18605 24226 ft 260 kts 162°
2026-05-08 03:14 -38.47243 145.19473 24344 ft 261 kts 162°
2026-05-08 03:14 -38.48911 145.20344 24548 ft 260 kts 162°
2026-05-08 03:14 -38.50610 145.21230 24651 ft 262 kts 162°
2026-05-08 03:14 -38.52293 145.22051 24828 ft 260 kts 165°
2026-05-08 03:15 -38.54004 145.22794 24958 ft 261 kts 165°
2026-05-08 03:15 -38.55737 145.23540 25106 ft 260 kts 165°
2026-05-08 03:15 -38.57467 145.24289 25168 ft 264 kts 165°
2026-05-08 03:15 -38.59224 145.25052 25179 ft 268 kts 165°
2026-05-08 03:16 -38.60988 145.25821 25180 ft 273 kts 165°
2026-05-08 03:16 -38.62800 145.26613 25178 ft 277 kts 165°
2026-05-08 03:16 -38.64640 145.27420 25183 ft 281 kts 165°
2026-05-08 03:16 -38.66511 145.28242 25176 ft 285 kts 165°
2026-05-08 03:17 -38.68402 145.29076 25177 ft 288 kts 165°
2026-05-08 03:17 -38.70303 145.29912 25175 ft 291 kts 165°
2026-05-08 03:17 -38.72218 145.30757 25173 ft 293 kts 164°
2026-05-08 03:17 -38.74161 145.31616 25177 ft 296 kts 164°
2026-05-08 03:18 -38.76105 145.32475 25176 ft 299 kts 164°
2026-05-08 03:18 -38.78079 145.33348 25176 ft 301 kts 164°
2026-05-08 03:18 -38.80062 145.34224 25173 ft 303 kts 164°
2026-05-08 03:18 -38.82068 145.35112 25175 ft 305 kts 164°
2026-05-08 03:19 -38.84078 145.36003 25176 ft 306 kts 164°
2026-05-08 03:19 -38.86106 145.36903 25175 ft 307 kts 164°
2026-05-08 03:19 -38.88112 145.37793 25170 ft 308 kts 164°
2026-05-08 03:19 -38.90142 145.38695 25171 ft 308 kts 164°
2026-05-08 03:20 -38.92157 145.39589 25172 ft 309 kts 164°
2026-05-08 03:20 -38.94209 145.40501 25164 ft 309 kts 164°
2026-05-08 03:20 -38.96233 145.41402 25164 ft 310 kts 164°
2026-05-08 03:20 -38.98262 145.42305 25171 ft 310 kts 164°
2026-05-08 03:21 -39.00309 145.43216 25166 ft 310 kts 164°
2026-05-08 03:21 -39.02349 145.44125 25163 ft 310 kts 164°
2026-05-08 03:21 -39.04413 145.45046 25165 ft 310 kts 164°
2026-05-08 03:21 -39.06446 145.45952 25157 ft 310 kts 164°
2026-05-08 03:22 -39.08472 145.46857 25160 ft 310 kts 164°
2026-05-08 03:22 -39.10525 145.47774 25163 ft 310 kts 164°
2026-05-08 03:22 -39.12558 145.48682 25158 ft 310 kts 164°
2026-05-08 03:22 -39.14624 145.49606 25156 ft 311 kts 164°
2026-05-08 03:23 -39.16642 145.50508 25159 ft 311 kts 164°
2026-05-08 03:23 -39.18700 145.51430 25162 ft 311 kts 164°
2026-05-08 03:23 -39.20748 145.52347 25160 ft 311 kts 164°
2026-05-08 03:23 -39.22780 145.53258 25160 ft 311 kts 164°
2026-05-08 03:24 -39.24817 145.54172 25153 ft 312 kts 164°
2026-05-08 03:24 -39.26888 145.55101 25154 ft 312 kts 164°
2026-05-08 03:24 -39.28911 145.56009 25155 ft 312 kts 164°
2026-05-08 03:24 -39.30967 145.56934 25156 ft 312 kts 164°
2026-05-08 03:25 -39.33022 145.57858 25157 ft 312 kts 164°
2026-05-08 03:25 -39.35055 145.58772 25147 ft 312 kts 164°
2026-05-08 03:25 -39.37114 145.59698 25149 ft 312 kts 164°
2026-05-08 03:25 -39.39147 145.60616 25148 ft 312 kts 164°
2026-05-08 03:26 -39.41208 145.61545 25147 ft 312 kts 164°
2026-05-08 03:26 -39.43243 145.62462 25147 ft 312 kts 164°
2026-05-08 03:26 -39.45293 145.63386 25147 ft 312 kts 164°
2026-05-08 03:26 -39.47347 145.64314 25145 ft 312 kts 164°
2026-05-08 03:27 -39.49368 145.65228 25142 ft 311 kts 163°
2026-05-08 03:27 -39.51424 145.66157 25149 ft 311 kts 163°
2026-05-08 03:27 -39.53457 145.67078 25153 ft 311 kts 163°
2026-05-08 03:27 -39.55508 145.68005 25145 ft 311 kts 163°
2026-05-08 03:28 -39.57552 145.68932 25143 ft 311 kts 163°
2026-05-08 03:28 -39.59600 145.69861 25144 ft 311 kts 163°
2026-05-08 03:28 -39.61641 145.70785 25145 ft 311 kts 163°
2026-05-08 03:28 -39.63660 145.71703 25144 ft 311 kts 163°
2026-05-08 03:29 -39.65704 145.72630 25136 ft 311 kts 163°
2026-05-08 03:29 -39.67749 145.73560 25127 ft 311 kts 163°
2026-05-08 03:29 -39.69782 145.74484 25129 ft 311 kts 163°
2026-05-08 03:29 -39.71820 145.75412 25126 ft 311 kts 163°
2026-05-08 03:30 -39.75887 145.77263 25134 ft 310 kts 163°
2026-05-08 03:30 -39.79950 145.79117 25132 ft 310 kts 163°
2026-05-08 03:31 -39.84026 145.80977 25131 ft 310 kts 163°
2026-05-08 03:31 -39.88094 145.82837 25126 ft 310 kts 164°
2026-05-08 03:32 -39.90126 145.83766 25128 ft 310 kts 163°
2026-05-08 03:32 -39.92192 145.84712 25124 ft 310 kts 163°
2026-05-08 03:32 -39.94239 145.85651 25116 ft 310 kts 163°
2026-05-08 03:32 -39.96263 145.86578 25118 ft 309 kts 163°
2026-05-08 03:33 -39.98296 145.87511 25116 ft 309 kts 163°
2026-05-08 03:33 -40.00300 145.88542 25109 ft 311 kts 157°
2026-05-08 03:33 -40.02165 145.90010 25117 ft 313 kts 151°
2026-05-08 03:33 -40.03984 145.91556 25113 ft 313 kts 151°
2026-05-08 03:34 -40.05823 145.93120 25114 ft 313 kts 152°
2026-05-08 03:34 -40.07638 145.94663 25109 ft 313 kts 152°
2026-05-08 03:34 -40.09455 145.96202 25112 ft 313 kts 152°
2026-05-08 03:34 -40.11301 145.97766 25117 ft 313 kts 151°
2026-05-08 03:35 -40.13132 145.99315 25119 ft 314 kts 152°
2026-05-08 03:35 -40.14968 146.00868 25112 ft 314 kts 151°
2026-05-08 03:35 -40.16809 146.02426 25112 ft 314 kts 152°
2026-05-08 03:35 -40.19171 146.04425 25112 ft 314 kts 152°
2026-05-08 03:36 -40.20996 146.05969 25104 ft 315 kts 152°
2026-05-08 03:36 -40.22851 146.07539 25106 ft 314 kts 152°
2026-05-08 03:36 -40.24692 146.09099 25108 ft 314 kts 152°
2026-05-08 03:36 -40.26437 146.10579 25100 ft 314 kts 152°
2026-05-08 03:37 -40.28292 146.12151 25102 ft 314 kts 152°
2026-05-08 03:37 -40.30119 146.13701 25103 ft 314 kts 152°
2026-05-08 03:37 -40.31957 146.15262 25105 ft 315 kts 152°
2026-05-08 03:37 -40.33773 146.16805 25098 ft 315 kts 152°
2026-05-08 03:38 -40.35620 146.18376 25103 ft 315 kts 152°
2026-05-08 03:38 -40.37460 146.19940 25096 ft 315 kts 152°
2026-05-08 03:38 -40.39283 146.21492 25093 ft 315 kts 152°
2026-05-08 03:38 -40.41118 146.23055 25092 ft 315 kts 152°
2026-05-08 03:39 -40.42968 146.24632 25094 ft 315 kts 152°
2026-05-08 03:39 -40.44799 146.26193 25093 ft 315 kts 152°
2026-05-08 03:39 -40.46654 146.27776 25095 ft 315 kts 152°
2026-05-08 03:39 -40.48496 146.29349 25094 ft 314 kts 152°
2026-05-08 03:40 -40.50315 146.30904 25097 ft 314 kts 152°
2026-05-08 03:40 -40.52144 146.32468 25093 ft 314 kts 152°
2026-05-08 03:40 -40.53964 146.34027 25056 ft 307 kts 152°
2026-05-08 03:40 -40.55746 146.35558 24774 ft 308 kts 152°
2026-05-08 03:41 -40.57523 146.37080 24382 ft 311 kts 152°
2026-05-08 03:41 -40.59363 146.38657 23936 ft 316 kts 152°
2026-05-08 03:41 -40.61192 146.40224 23486 ft 320 kts 152°
2026-05-08 03:41 -40.63079 146.41843 23024 ft 323 kts 152°
2026-05-08 03:42 -40.64963 146.43460 22555 ft 326 kts 152°
2026-05-08 03:42 -40.66859 146.45090 22080 ft 329 kts 152°
2026-05-08 03:42 -40.68775 146.46738 21603 ft 331 kts 151°
2026-05-08 03:42 -40.70712 146.48406 21119 ft 332 kts 151°
2026-05-08 03:43 -40.72639 146.50066 20632 ft 333 kts 151°
2026-05-08 03:43 -40.74605 146.51761 20137 ft 334 kts 150°
2026-05-08 03:43 -40.76548 146.53438 19605 ft 336 kts 150°
2026-05-08 03:43 -40.78494 146.55116 19107 ft 337 kts 150°
2026-05-08 03:44 -40.80453 146.56810 18614 ft 337 kts 150°
2026-05-08 03:44 -40.82417 146.58507 18117 ft 337 kts 150°
2026-05-08 03:44 -40.84376 146.60204 17621 ft 335 kts 150°
2026-05-08 03:44 -40.86287 146.61862 17143 ft 331 kts 150°
2026-05-08 03:45 -40.88203 146.63524 16662 ft 328 kts 150°
2026-05-08 03:45 -40.90103 146.65173 16189 ft 325 kts 149°
2026-05-08 03:45 -40.91983 146.66808 15721 ft 319 kts 149°
2026-05-08 03:45 -40.93805 146.68394 15267 ft 313 kts 149°
2026-05-08 03:46 -40.95617 146.69974 14816 ft 307 kts 149°
2026-05-08 03:46 -40.97398 146.71523 14373 ft 302 kts 149°
2026-05-08 03:46 -40.99141 146.73041 13935 ft 298 kts 149°
2026-05-08 03:46 -41.00854 146.74533 13506 ft 294 kts 149°
2026-05-08 03:47 -41.02552 146.76015 13082 ft 291 kts 149°
2026-05-08 03:47 -41.04221 146.77469 12671 ft 288 kts 150°
2026-05-08 03:47 -41.05889 146.78925 12246 ft 285 kts 150°
2026-05-08 03:47 -41.07519 146.80347 11837 ft 281 kts 150°
2026-05-08 03:48 -41.09161 146.81781 11425 ft 279 kts 150°
2026-05-08 03:48 -41.10766 146.83183 11020 ft 276 kts 150°
2026-05-08 03:48 -41.12348 146.84566 10617 ft 273 kts 150°
2026-05-08 03:48 -41.13914 146.85936 10229 ft 270 kts 151°
2026-05-08 03:49 -41.15479 146.87305 9842 ft 268 kts 150°
2026-05-08 03:49 -41.17050 146.88681 9450 ft 265 kts 151°
2026-05-08 03:49 -41.18582 146.90024 9057 ft 263 kts 151°
2026-05-08 03:49 -41.19550 146.90872 8814 ft 261 kts 150°
2026-05-08 03:50 -41.21118 146.92248 8420 ft 258 kts 151°
2026-05-08 03:50 -41.22583 146.93538 8044 ft 249 kts 150°
2026-05-08 03:50 -41.24001 146.94792 7685 ft 238 kts 151°
2026-05-08 03:50 -41.25351 146.95984 7343 ft 227 kts 151°
2026-05-08 03:51 -41.26653 146.97133 7018 ft 217 kts 151°
2026-05-08 03:51 -41.27774 146.98123 6734 ft 208 kts 152°
2026-05-08 03:51 -41.28962 146.99173 6434 ft 197 kts 152°
2026-05-08 03:51 -41.30080 147.00162 6151 ft 186 kts 153°
2026-05-08 03:52 -41.31130 147.01092 5880 ft 175 kts 153°
2026-05-08 03:52 -41.32112 147.01959 5635 ft 167 kts 154°
2026-05-08 03:52 -41.33096 147.02805 5406 ft 171 kts 154°
2026-05-08 03:52 -41.34121 147.03673 5160 ft 176 kts 153°
2026-05-08 03:53 -41.35159 147.04555 4905 ft 180 kts 153°
2026-05-08 03:53 -41.36228 147.05467 4644 ft 184 kts 152°
2026-05-08 03:53 -41.37307 147.06393 4380 ft 187 kts 153°
2026-05-08 03:53 -41.38403 147.07335 4104 ft 188 kts 152°
2026-05-08 03:54 -41.39507 147.08284 3825 ft 190 kts 152°
2026-05-08 03:54 -41.40623 147.09242 3562 ft 191 kts 152°
2026-05-08 03:54 -41.41746 147.10197 3309 ft 190 kts 152°
2026-05-08 03:54 -41.42863 147.11148 3051 ft 190 kts 152°
2026-05-08 03:55 -41.43962 147.12085 2805 ft 187 kts 152°
2026-05-08 03:55 -41.45023 147.12997 2567 ft 176 kts 151°
2026-05-08 03:55 -41.46011 147.13850 2319 ft 157 kts 152°
2026-05-08 03:55 -41.46900 147.14607 2172 ft 151 kts 153°
2026-05-08 03:56 -41.47811 147.15366 1960 ft 155 kts 153°
2026-05-08 03:56 -41.48728 147.16132 1750 ft 158 kts 152°
2026-05-08 03:56 -41.49646 147.16911 1532 ft 154 kts 152°
2026-05-08 03:56 -41.50544 147.17676 1327 ft 152 kts 150°
2026-05-08 03:57 -41.51414 147.18428 1122 ft 148 kts 149°
2026-05-08 03:57 -41.52266 147.19179 955 ft 148 kts 149°
2026-05-08 03:57 -41.53133 147.19925 765 ft 146 kts 150°
2026-05-08 03:57 -41.53975 147.20641 572 ft 139 kts 150°
2026-05-08 03:58 -41.54665 147.21230 565 ft 89 kts 148°
2026-05-08 03:58 -41.55041 147.21553 566 ft 40 kts 147°
2026-05-08 03:58 -41.55172 147.21677 563 ft 9 kts 182°
2026-05-08 03:58 -41.55145 147.21637 564 ft 14 kts 333°
2026-05-08 03:59 -41.55036 147.21545 566 ft 28 kts 327°
2026-05-08 03:59 -41.54812 147.21353 566 ft 43 kts 327°
2026-05-08 03:59 -41.54726 147.21199 567 ft 14 kts 236°
2026-05-08 03:59 -41.54744 147.21112 570 ft 8 kts 310°
2026-05-08 04:00 -41.54694 147.21063 569 ft 11 kts 327°
2026-05-08 04:00 -41.54589 147.20978 568 ft 23 kts 328°
2026-05-08 04:00 -41.54443 147.20851 566 ft 23 kts 328°
2026-05-08 04:00 -41.54335 147.20755 566 ft 11 kts 311°
2026-05-08 04:01 -41.54316 147.20682 568 ft 4 kts 292°
2026-05-08 04:01 -41.54314 147.20674 569 ft 0 kts 291°